Regional Weather Roundup
Issued by NWS

Home | Current Version | Previous Version | Text Only | Print | Product List | Glossary On
Versions: 1 2 3 4 5 6 7 8 9 10 11 12 13 14 15 16 17 18 19 20 21 22 23 24 25 26 27 28 29 30 31 32 33 34 35 36 37 38 39 40 41 42 43 44 45 46 47 48 49 50
000
ASUS43 KTOP 281959
RWRKS

WEATHER ROUNDUP FOR KANSAS
NATIONAL WEATHER SERVICE GOODLAND KS
300 PM CDT TUE JUL 28 2015

NOTE:  "FAIR" INDICATES FEW OR NO CLOUDS BELOW 12,000 FEET WITH NO
SIGNIFICANT WEATHER AND/OR OBSTRUCTIONS TO VISIBILITY.

KSZ001>006-013>018-027>032-041>047-282100-
NORTHWEST KANSAS

CITY           SKY/WX    TMP DP  RH WIND       PRES   REMARKS
GOODLAND       SUNNY     84  41  21 N17G26    30.08S
HAYS           SUNNY     88  64  45 N21G28    29.92R
HILL CITY      SUNNY     87  55  33 N22       29.98R
RUSSELL        SUNNY     94  71  47 N12       29.86S HX 101
$$

KSZ061>065-074>080-084>089-282100-
SOUTHWEST KANSAS

CITY           SKY/WX    TMP DP  RH WIND       PRES   REMARKS
DODGE CITY     SUNNY     89  68  49 N15G23    29.95R
ELKHART          N/A     88  53  30 N14         N/A
GARDEN CITY    SUNNY     85  59  41 N23G30    29.99R
GREAT BEND     SUNNY     97  68  38 W10       29.86S HX 101
LIBERAL        SUNNY     90  63  40 N17       29.97S
$$

KSZ066>073-081>083-090>101-282100-
SOUTHEAST KANSAS

CITY           SKY/WX    TMP DP  RH WIND       PRES   REMARKS
CHANUTE        SUNNY     94  72  48 S17G23    29.91F HX 102
COFFEYVILLE    SUNNY     95  72  47 S16       29.91F HX 103
HUTCHINSON     SUNNY    102  67  31 S20G29    29.85F HX 107
MEDICINE LODGE   N/A     98  70  40 S14       29.85F HX 105
NEWTON         SUNNY     99  68  36 S20G26    29.90S HX 104
PARSONS        SUNNY     94  74  52 S10       29.93S HX 104
WICHITA INTL   SUNNY     99  69  37 S23G30    29.86S HX 105
WICHITA JABRA  SUNNY     99  70  38 S20G29    29.87S HX 106
WINFIELD       SUNNY     97  72  44 S18G26    29.89F HX 105
$$

KSZ007>012-019>026-033>040-048>060-102>105-282100-
NORTHEAST KANSAS

CITY           SKY/WX    TMP DP  RH WIND       PRES   REMARKS
CONCORDIA      SUNNY     94  73  50 VRB6      29.85S HX 103
EMPORIA        SUNNY     99  70  38 S22G29    29.87S HX 106
LAWRENCE       SUNNY     96  73  47 S12       29.87F HX 105
MANHATTAN      SUNNY    100  71  39 SW13G24   29.83R HX 108
OLATHE IND     SUNNY     95  72  47 S20G25    29.90S HX 103
OLATHE EXE     SUNNY     93  71  48 S15G22    29.89F HX 100
SALINA         SUNNY    102  68  33 S17G25    29.82S HX 108
TOPEKA BILLARD SUNNY     96  72  45 S15       29.86S HX 104
TOPEKA FORBES  SUNNY     98  70  40 S16G24    29.87S HX 105
$$



USA.gov is the U.S. government's official web portal to all federal, state and local government web resources and services.